Location: Unspecified
(0.0000°N, 0.0000°E)
Time: 11:51:52
(UTC+00:00)

Courier 1B Rocket - Visible Passes

Search period start: 01 August 2014 00:00
Search period end: 11 August 2014 00:00
Orbit: 921 x 1202 km, 28.3° (Epoch: 31 July)

Date Brightness Start Highest point End Pass type
(mag) Time Alt. Az. Time Alt. Az. Time Alt. Az.
01 Aug 6.7 18:44:11 10° NNW 18:50:12 25° NNE 18:55:56 10° ENE visible
01 Aug 5.7 20:36:52 10° WNW 20:42:22 53° NW 20:42:22 53° NW visible
02 Aug 5.5 19:35:44 10° NW 19:43:04 55° NNE 19:45:17 40° E visible
02 Aug 7.4 21:29:57 10° W 21:31:40 18° W 21:31:40 18° W visible
03 Aug 7.1 05:15:24 10° S 05:17:22 11° SSE 05:19:21 10° SE visible
03 Aug 6.2 18:34:49 10° NW 18:41:49 38° NNE 18:48:14 11° E visible
03 Aug 5.5 20:28:16 10° WNW 20:34:37 60° WSW 20:34:37 60° WSW visible
04 Aug 5.2 19:26:52 10° WNW 19:34:31 83° NNE 19:37:36 38° ESE visible
04 Aug 7.4 21:22:05 10° W 21:23:59 17° WSW 21:23:59 17° WSW visible
05 Aug 6.9 05:05:07 10° SSW 05:09:11 18° SSE 05:13:20 10° ESE visible
05 Aug 5.7 18:25:43 10° NW 18:33:18 57° NNE 18:40:29 10° ESE visible
05 Aug 5.9 20:20:00 10° W 20:27:00 44° SSW 20:27:00 44° SSW visible
06 Aug 7.1 04:06:48 11° SSE 04:07:57 11° SSE 04:09:51 10° SE visible
06 Aug 5.5 19:18:18 10° WNW 19:25:55 66° SSW 19:30:01 28° SE visible
06 Aug 7.5 21:14:44 10° WSW 21:16:24 15° WSW 21:16:24 15° WSW visible
07 Aug 6.4 04:56:10 12° SSW 05:00:53 27° SSE 05:06:10 10° E visible
07 Aug 6.4 20:12:08 10° W 20:18:34 30° SSW 20:19:26 29° SSW visible
08 Aug 6.7 03:59:11 18° SSE 03:59:48 18° SSE 04:03:52 10° ESE visible
08 Aug 6.1 19:10:03 10° W 19:17:20 44° SSW 19:22:29 18° SSE visible
08 Aug 7.6 21:08:06 10° SW 21:08:52 11° SW 21:08:52 11° SW visible
09 Aug 5.7 04:48:36 20° SSW 04:52:30 42° SSE 04:58:27 10° E visible
09 Aug 6.9 20:04:46 10° WSW 20:10:10 21° SSW 20:11:54 19° S visible
10 Aug 6.2 03:51:39 28° SSE 03:51:39 28° SSE 03:56:44 10° E visible
10 Aug 5.0 05:38:45 10° WSW 05:44:58 77° NNW 05:51:23 10° NE visible
10 Aug 6.7 19:02:11 10° W 19:08:48 30° SSW 19:14:55 11° SSE visible
